Your browser is no longer supported. Please, upgrade your browser.
Filter
Ticker Owner Relationship Date Transaction Cost #Shares Value ($) #Shares Total SEC Form 4
NPTNWALLIN RAYSVP, CFOApr 27Sale13.526,67290,18418,500Apr 28 09:49 PM
TMKHENRIE MICHAEL SHANEOfficer of Principal Sub.Apr 28Sale58.502,327136,1330Apr 28 09:03 PM
BABYGUNST ROBERT ADirectorApr 26Sale34.615,000173,05050,000Apr 28 08:49 PM
TSLAFIELD JOHN DOUGLASVP, EngineeringApr 26Sale253.131,000253,13410,429Apr 28 08:42 PM
TMKRogers John Henry JROfficer of Principal SubApr 28Sale58.401,50087,6000Apr 28 08:37 PM
MMIBerman Gene A.Executive Vice PresidentApr 26Sale24.4119,384473,101486,713Apr 28 08:34 PM
ACMOsborne Ronald ESVP, ControllerApr 26Sale32.005,000160,00019,346Apr 28 08:26 PM
UAPlank Kevin AChairman and CEOApr 28Sale42.5725,0001,064,171720,900Apr 28 07:35 PM
UAPlank Kevin AChairman and CEOApr 28Sale42.57200,0008,513,37028,972,170Apr 28 07:35 PM
UAPlank Kevin AChairman and CEOApr 27Sale42.4925,0001,062,307727,150Apr 28 07:35 PM
UAPlank Kevin AChairman and CEOApr 27Sale42.49200,0008,498,46029,172,170Apr 28 07:35 PM
UAPlank Kevin AChairman and CEOApr 26Sale44.1525,0001,103,750733,400Apr 28 07:35 PM
UAPlank Kevin AChairman and CEOApr 26Sale44.15200,0008,830,00029,522,170Apr 28 07:35 PM
NTGRFALCON MICHAEL FSVP, OperationsApr 28Sale45.008,308373,86037,579Apr 28 07:34 PM
DXCMVALDES JORGE ACTOApr 27Sale70.0010,000700,0009,588Apr 28 07:30 PM
DXCMPacelli Steven RobertEVP, Strategy & Corp. Dev.Apr 27Sale70.392,361166,190201,757Apr 28 07:30 PM
WBCLiu LeonPres, Truck, Bus & Car OEMsApr 26Sale113.0016,1511,825,06322,647Apr 28 07:18 PM
SWKSALDRICH DAVID JChairman and CEOApr 26Sale71.6915,0001,075,390175,327Apr 28 07:14 PM
SSDLeung Sunny HVice PresidentApr 27Sale38.7598838,285943Apr 28 07:11 PM
COBZWhite Mary MDirectorApr 27Sale12.291,00012,2905,976Apr 28 07:09 PM
COBZPage ScottCEO, Cobiz BankApr 28Sale12.377,87197,36482,955Apr 28 07:05 PM
COBZANDRICH LYNE BEVP & Chief Financial OfficerApr 28Sale12.318,793108,24280,854Apr 28 07:05 PM
COBZANDRICH LYNE BEVP & Chief Financial OfficerApr 27Sale12.301,00712,38689,647Apr 28 07:05 PM
COBZDALTON RICHARD JEVP & Chief Operations OfficerApr 26Sale12.436,21977,302128,003Apr 28 07:05 PM
HNIDETERMAN BRADLEY DExecutive Vice PresidentApr 26Sale43.6648,0922,099,69729,602Apr 28 07:04 PM
TMUSRay Neville REVP & Chief Technology OfficerApr 26Sale42.0011,906500,052216,987Apr 28 07:04 PM
NTGRKim Andrew WonkiSVP, Legal and Corp. Dev.Apr 28Sale43.7142,1171,841,03125,750Apr 28 07:02 PM
LKQHOLSTEN JOSEPH MDirectorApr 26Sale34.0016,000544,000266,155Apr 28 07:00 PM
NTGRWERDANN MICHAEL ASVP of Worldwide SalesApr 28Sale42.0010,000420,00030,750Apr 28 06:52 PM
HMHCColangelo Brook MickeySee remarks.Apr 27Sale20.664,16786,07135,377Apr 28 06:46 PM
HMHCCannon Timothy LonSee remarks.Apr 27Sale20.6215,000309,37112,169Apr 28 06:45 PM
ILMNHENRY CHRISTIAN OEVP & Chief Commercial OfficerApr 27Sale138.462,141296,44626,115Apr 28 06:34 PM
BOHTANABE BARBARA JDirectorApr 27Sale69.4472550,34210,756Apr 28 06:20 PM
SYKSTRYKER RONDA EDirectorApr 27Sale109.376,000656,2238,118,233Apr 28 06:11 PM
SYKSTRYKER RONDA EDirectorApr 26Sale109.086,000654,4788,124,233Apr 28 06:11 PM
VMWPOONEN SANJAYEVP, GM, EUC, Head Global MktgApr 26Sale57.8013,000751,400166,376Apr 28 06:06 PM
SCHLROBINSON RICHARDCEO, Chairman and PresidentApr 26Sale37.1519,390720,3004,398,650Apr 28 06:03 PM
HZODay Paulee CEVP & Chief Legal OfficerApr 27Sale20.131,18123,77411,668Apr 28 06:02 PM
HZODay Paulee CEVP & Chief Legal OfficerApr 26Sale20.093346,71011,668Apr 28 06:02 PM
PNRFrykman Karl R.President Aquatic SystemsApr 27Sale60.0011,900714,00028,115Apr 28 05:59 PM
HZOMcGill W BrettEVP OperationsApr 27Sale20.131,91938,6297,996Apr 28 05:58 PM
HZOMcGill W BrettEVP OperationsApr 26Sale20.0954410,9297,996Apr 28 05:58 PM
HZOMCGILL WILLIAM H JRPresident, Chairman and CEOApr 27Sale20.139,745196,167246,431Apr 28 05:53 PM
HZOMCGILL WILLIAM H JRPresident, Chairman and CEOApr 26Sale20.092,75955,428246,431Apr 28 05:53 PM
WINAOLSON RONALD G10% OwnerApr 27Sale100.4150550,708558,870Apr 28 05:40 PM
WINAOLSON RONALD G10% OwnerApr 26Sale100.4630530,640559,375Apr 28 05:40 PM
CCIKelley Philip MSenior VP, Corp Dev & StrategyApr 27Sale87.6946,9514,116,94595,010Apr 28 05:40 PM
MDSOHirschfeld Steven IsaacVice ChairmanApr 27Sale45.0910,000450,900125,867Apr 28 05:37 PM
DHILDILLON RODERICK H JRDirectorApr 28Sale180.399016,235174,113Apr 28 05:22 PM
DHILDILLON RODERICK H JRDirectorApr 27Sale181.60223,995174,203Apr 28 05:22 PM
DHILDILLON RODERICK H JRDirectorApr 26Sale180.442,000360,880174,225Apr 28 05:22 PM
POOLSt Romain Kenneth GGROUP VICE PRESIDENTApr 26Sale89.1922,0001,962,134101,617Apr 28 05:20 PM
HSONSagard Capital Partners, L.P.10% OwnerApr 27Sale2.5214,00035,2814,636,189Apr 28 05:16 PM
CLCLINDSAY DAVID JVP-Admin. & Chief Admin. Off.Apr 27Sale59.5221,7001,291,58411,806Apr 28 05:13 PM
MRTNMARTEN RANDOLPH LChairman of the Board & CEOApr 28Sale19.2920,000385,7427,288,031Apr 28 05:13 PM
MRTNMARTEN RANDOLPH LChairman of the Board & CEOApr 27Sale19.2231,140598,3897,308,031Apr 28 05:13 PM
MRTNMARTEN RANDOLPH LChairman of the Board & CEOApr 26Sale19.018,860168,4537,339,171Apr 28 05:13 PM
QUADFowler John CVice Chairman & EVPApr 27Sale13.075,80075,798213,830Apr 28 05:05 PM
QUADFowler John CVice Chairman & EVPApr 26Sale13.002,20028,606219,630Apr 28 05:05 PM
SCHWSCHWAB CHARLES RChairmanApr 27Sale29.8850,9501,522,457100,643,993Apr 28 05:05 PM
ETFCSimonich BrentPrincipal Accounting OfficerApr 26Sale26.223,994104,71645,705Apr 28 05:04 PM
JBHTTHOMPSON JAMES KChairman of the BoardApr 26Sale85.719,000771,35470,346Apr 28 05:01 PM
CAMPVITELLE RICHARD KExecutive VP & CFOApr 26Sale15.357,500115,125306,299Apr 28 05:01 PM
NCITNarang Charles KDirectorApr 27Sale15.004,15162,265517,805Apr 28 04:54 PM
NCITNarang Charles KDirectorApr 26Sale15.0022,184332,760521,956Apr 28 04:54 PM
NCITNarang Charles KDirectorMar 04Sale15.002,39935,985544,140Apr 28 04:53 PM
NCITNarang Charles KDirectorMar 03Sale15.008,731130,965546,539Apr 28 04:53 PM
RHTAlexander DeLisaEVP, Chief People OfficerApr 27Sale74.0012,516926,18452,931Apr 28 04:45 PM
BSXPhalen Michael P.EVP & President, MedSurgApr 27Sale22.0035,000770,00089,309Apr 28 04:33 PM
VLGEAEstate of Perry SumasMember of group 10% ownerApr 28Sale24.931,61140,160470,703Apr 28 04:31 PM
PMFIRESTONE MARC SSr. VP & General CounselApr 26Sale97.0618,0001,747,127184,179Apr 28 04:30 PM
BSXPratt Timothy A.EVP, GC & Chief Admin OfficerApr 27Sale21.4039,927854,438291,724Apr 28 04:29 PM
BSXPierce David ASVP and President, EndoscopyApr 27Sale21.6916,512358,16225,600Apr 28 04:26 PM
TNCWilson Heidi MSVP, General Counsel and Sec'yApr 28Sale54.402,000108,80618,326Apr 28 04:25 PM
TNCPAULSON THOMASSVP, CFOApr 26Sale56.001186,60828,009Apr 28 04:24 PM
BSXBallinger Kevin J.SVP & Pres, Interven CardioApr 27Sale21.62111,8072,416,77546,970Apr 28 04:22 PM
PEGAJONES RICHARD HDirectorApr 26Sale26.232005,24686,198Apr 28 04:22 PM
PEGAJONES RICHARD HDirectorApr 26Sale26.2340010,492654,158Apr 28 04:22 PM
TRVFISHMAN JAY SExec. Chairman of the BoardApr 27Sale109.27288,84831,562,618422,074Apr 28 04:21 PM
HONSzlosek Thomas ASVP & Chief Financial OfficerApr 27Sale114.9128,3173,253,90635,323Apr 28 04:20 PM
HONKramvis AndreasVice ChairmanApr 27Sale115.0751,4055,915,17376,209Apr 28 04:20 PM
HONJames Mark R.SVP HR, Comm & ProcurApr 27Sale114.84109,15012,534,78681,411Apr 28 04:19 PM
ULTIFITZPATRICK JAMES A JRDirectorApr 28Sale199.38931185,62212,403Apr 28 04:17 PM
PFPTEVAN DANA LDirectorApr 26Sale57.561,25071,9565,192Apr 28 04:16 PM
USBCECERE ANDREWPresident and COOApr 27Sale43.53321,69114,003,209535,283Apr 28 04:15 PM
INTCHOLT WILLIAM MExec VP GM, Tech & Mfg GrpApr 26Sale31.354,603144,28622,131Apr 28 04:15 PM
IARTESSIG STUARTDirectorApr 27Sale70.15104,3907,323,167960,319Apr 28 04:11 PM
INDBSULLIVAN MAURICE H JRDirectorApr 27Sale47.353,000142,04624,730Apr 28 04:11 PM
SABRWebb Gregory TVice ChairmanApr 27Sale27.9151,0021,423,64980,666Apr 28 04:07 PM
LHORiggins Bruce AEVPApr 26Sale24.4615,000366,92956,696Apr 28 04:07 PM
MORNSturm Paul WDirectorApr 28Sale83.992,542213,51245,068Apr 28 04:00 PM
FNJNMar-Spinola JulieCIPOApr 27Sale1.172,0102,35225,110Apr 28 03:59 PM
VZSILLIMAN CRAIG L.EVP of PubPolicy & Gen CounselApr 26Sale51.0067234,27213,214Apr 28 03:50 PM
LLYZulueta Alfonso GSVP& Pres., Emerging MarketsApr 27Sale76.2712,000915,24045,101Apr 28 03:43 PM
UBFOELLITHORPE G THOMPSONDirectorApr 22Sale5.031,2506,288136,567Apr 28 03:38 PM
NTGRGraham JefDirectorApr 27Sale40.006,150246,00014,726Apr 28 03:09 PM
WBSMADAR GREGORYChief Accounting OfficerApr 27Sale37.422,11579,15110,586Apr 28 03:07 PM
KAMNGAMCO INVESTORS, INC. ET AL10% OwnerApr 27Sale42.7060025,6190Apr 28 03:07 PM
WFCSTROTHER JAMES MSr. Executive Vice PresidentApr 27Sale50.7740,0002,030,800218,584Apr 28 03:05 PM
NTGRFALCON MICHAEL FSVP, OperationsApr 26Sale39.463,054120,51137,579Apr 28 02:54 PM
SHWKROPF SUSAN JDirectorApr 27Sale297.992,000595,98011,225Apr 28 02:54 PM
SSDSIMPSON SHARON H10% OwnerApr 27Sale39.001,40054,6001,676,353Apr 28 02:54 PM
SSDSIMPSON SHARON H10% OwnerApr 26Sale39.0110,187397,3481,677,753Apr 28 02:54 PM
SSDSIMPSON SHARON H10% OwnerApr 22Sale38.2444,7001,709,4581,687,940Apr 28 02:54 PM
SSDSIMPSON PSB FUNDSee below (a)Apr 27Sale39.001,40054,6001,676,353Apr 28 02:53 PM
SSDSIMPSON PSB FUNDSee below (a)Apr 26Sale39.0110,187397,3481,677,753Apr 28 02:53 PM
SSDSIMPSON PSB FUNDSee below (a)Apr 22Sale38.2444,7001,709,4581,687,940Apr 28 02:53 PM
OXYCHAZEN STEPHEN ICEOApr 28Sale76.792,500191,9751,842,619Apr 28 02:46 PM
OXYCHAZEN STEPHEN ICEOApr 26Sale75.812,500189,5251,845,119Apr 28 02:46 PM
WFCModjtabai AvidSr. Executive Vice PresidentApr 27Sale50.7755,0002,792,350364,802Apr 28 02:43 PM
BSETDaniel John MichaelSVP, Chief Financial OfficerApr 26Sale30.006,145184,35543,513Apr 28 02:42 PM
ZNVan Brauman MartinDirectorApr 27Sale1.753,0005,250245,587Apr 28 02:22 PM
ZNVan Brauman MartinDirectorApr 26Sale1.7515,00026,300248,587Apr 28 02:22 PM
GAMALTSCHUL ARTHUR G JRDirectorApr 27Sale31.892,50079,73145,003Apr 28 02:11 PM
GAMALTSCHUL ARTHUR G JRDirectorApr 26Sale31.752,50079,38047,503Apr 28 02:11 PM
GAMTRUST FBO ALTSCHUL ARTHUR G UWTtee/Beneficiary is a DirectorApr 27Sale31.891,00031,8927,691Apr 28 01:36 PM
GAMTRUST FBO ALTSCHUL ARTHUR G UWTtee/Beneficiary is a DirectorApr 26Sale31.751,00031,7528,691Apr 28 01:36 PM
GAMTRUST FBO ALTSCHUL ARTHUR G JRTtee/Beneficiary is a DirectorApr 27Sale31.8950015,9463,185Apr 28 01:23 PM
GAMTRUST FBO ALTSCHUL ARTHUR G JRTtee/Beneficiary is a DirectorApr 26Sale31.7550015,8763,685Apr 28 01:23 PM
GAMTRUST FBO ARTHUR G ALTSCHUL JRTtee/Beneficiary is a DirectorApr 27Sale31.891,00031,8926,209Apr 28 01:07 PM
GAMTRUST FBO ARTHUR G ALTSCHUL JRTtee/Beneficiary is a DirectorApr 26Sale31.751,00031,7527,209Apr 28 01:07 PM
ENTGMurphy John JSr. Vice President -HRApr 26Sale14.0155,778781,28868,749Apr 28 12:54 PM
WWDPreiss Chad RobertPresident, Engine SystemsApr 26Sale54.8514,500795,36016,317Apr 28 12:24 PM
CCKGifford Gerard HPresident - European DivisionApr 27Sale53.7915,000806,85093,393Apr 28 11:56 AM
KAILEONARD THOMAS CDirectorApr 26Sale47.002,500117,50026,250Apr 28 11:54 AM
ISRGLEVY ALAN JDirectorApr 26Sale631.72542342,3922,213Apr 28 11:41 AM
SWHSTAFSTROM STEVEN JVP Ops, GTS & GEM (incl DTV)Apr 26Sale112.711,772199,73024,031Apr 28 11:11 AM
SNHYKOSKI CHRISTINE LDirectorApr 27Sale35.6829,0001,034,726195,929Apr 28 10:42 AM
SNHYKOSKI CHRISTINE LDirectorApr 26Sale35.1211,000386,366224,929Apr 28 10:42 AM
MORNSturm Paul WDirectorApr 27Sale84.085,000420,41247,610Apr 28 10:24 AM
SNHYFulton Tricia LChief Financial OfficerApr 26Sale35.001113,88550,385Apr 28 10:19 AM
ICBKMUELLER WAYNE D.DirectorApr 26Sale20.173,80076,66221,263Apr 28 09:57 AM
MXIMBERGMAN JAMES RDirectorApr 26Sale38.175,000190,84120,000Apr 28 08:58 AM
MXIMBERGMAN JAMES RDirectorApr 26Sale38.1012,824488,53796,600Apr 28 08:58 AM
WALSNYDER DONALD DDirectorApr 25Sale36.5415,000548,05481,352Apr 27 09:02 PM
EVOKDOMAIN PARTERS VII L P10% OwnerApr 27Sale5.023,60318,087950,403Apr 27 08:25 PM
EVOKDOMAIN PARTERS VII L P10% OwnerApr 25Sale5.201,4927,758954,006Apr 27 08:25 PM
PLDOlinger Thomas SChief Financial OfficerApr 26Sale45.8116,000732,96042,022Apr 27 08:24 PM
SWHCSmith Mark PeterSee remarks.Apr 27Sale22.353,87686,62927,166Apr 27 08:16 PM
GBXBAKER MARTIN RAYMONDSVP, GC, & Compliance OfficerApr 27Sale30.675,357164,31511,211Apr 27 08:03 PM
NKESlusher John FEVP: GBL SPORTS MKTGApr 26Sale59.5940,0002,383,600163,104Apr 27 07:58 PM
ALKSPRAGUE JOSEPH ASR VP/COMM & EXT RELATIONSApr 25Sale75.288,800662,43031,301Apr 27 07:56 PM
MLHRTERRELL DOROTHY ADirectorApr 26Sale30.766,100187,6239,694Apr 27 07:44 PM
MLNXFEDERMAN IRWINChairman of the BoardApr 26Sale45.5425,0001,138,39031,133Apr 27 07:35 PM
MLNXJohnson Amal MDirectorApr 26Sale45.453,571162,30229,500Apr 27 07:32 PM
NEWRGochee James R.Chief Product OfficerApr 27Sale25.641,00025,640412,935Apr 27 07:18 PM
GAMTRUST F B O ALTSCHUL EMILY H UChairmanApr 26Sale31.752,34074,29946,979Apr 27 07:11 PM
HCACuffe Michael S.President-Physician ServicesApr 25Sale80.732,575207,8807,293Apr 27 07:06 PM
GAMTRUST F B O ALTSCHUL CHARLES UChairmanApr 26Sale31.752,00063,50421,048Apr 27 07:04 PM
LVNTAVADON MARK CDirectorApr 26Sale26.6840,4751,079,8495,540,442Apr 27 07:03 PM
LVNTAVADON MARK CDirectorApr 25Sale26.5218,636494,1865,580,917Apr 27 07:03 PM
RSPPCollins Ted JrDirectorApr 26Sale32.0021,000672,0008,695,088Apr 27 06:50 PM
RSPPCollins Ted JrDirectorApr 25Sale31.2821,000656,8988,716,088Apr 27 06:50 PM
WALMCAUSLAN ROBERT REOCHEVP, Chief Credit OfficerApr 25Sale36.4910,000364,90543,323Apr 27 06:47 PM
WShah NirajChief Executive OfficerApr 25Sale40.074,900196,3460Apr 27 06:34 PM
WMacri EdmondChief ProductApr 26Sale39.3550019,675238,614Apr 27 06:33 PM
FBStretch ColinVP and General CounselApr 26Sale110.471,000110,47073,753Apr 27 06:27 PM
WConine StevenChief Technology OfficerApr 25Sale40.094,405176,5830Apr 27 06:27 PM
FBCox Christopher KChief Product OfficerApr 25Sale109.6515,6001,710,489386,916Apr 27 06:26 PM
WSavarese JamesChief Operating OfficerApr 27Sale38.7750019,385604,313Apr 27 06:24 PM
SFSHirz David G.President & CEOApr 25Sale16.252263,67348,513Apr 27 06:19 PM
ITWParry David CVice ChairmanApr 25Sale104.418,000835,280628Apr 27 06:18 PM
LUVShaw Mark RSVP,Gen Counsel,Corp.SecretaryApr 26Sale47.311004,7317,526Apr 27 06:16 PM
SLGLEVY JOHN SDirectorApr 25Sale105.3912,0001,264,68015,827Apr 27 06:15 PM
JAZZWILSON KAREN JSVP, Finance & PAOApr 25Sale160.0060496,64018,059Apr 27 06:15 PM
IMPRHussain OmarPresident and CEOApr 26Sale12.297,64293,922159,840Apr 27 05:37 PM
IMPRHussain OmarPresident and CEOApr 25Sale12.4410,922135,835159,840Apr 27 05:37 PM
VIRCBELL JERRY SCOTTCOOApr 27Sale3.197,27523,2079,869Apr 27 05:28 PM
EIGDirks Douglas DPresident & CEOApr 25Sale28.8937,6321,087,310300,102Apr 27 05:27 PM
NCRDaichendt Gary JamesDirectorApr 26Sale31.432,40075,43281,403Apr 27 05:20 PM
RSKoch Stephen PaulSr. VP, OperationsApr 25Sale71.2023,3551,662,80414,600Apr 27 05:19 PM
RSHANNAH DAVID HExecutive ChairmanApr 25Sale71.3835,9172,563,874198,000Apr 27 05:18 PM
NCRBOYKIN EDWARD PDirectorApr 26Sale31.432,40075,43280,717Apr 27 05:18 PM
APHBADIE RONALD PDirectorApr 27Sale57.0580,0004,564,09643,720Apr 27 05:13 PM
IPGPValentin Gapontsev Trust I10% OwnerApr 27Sale101.841,807184,0257,654,499Apr 27 05:09 PM
IPGPValentin Gapontsev Trust I10% OwnerApr 26Sale101.005,693574,9937,656,306Apr 27 05:09 PM
IPGPValentin Gapontsev Trust I10% OwnerApr 25Sale98.1915,0001,472,8507,661,999Apr 27 05:09 PM
IPGPGAUTHIER HENRY EDirectorApr 26Sale100.4210,0011,004,30017,473Apr 27 05:09 PM
NKTRLingnau LutzDirectorApr 25Sale16.2715,000244,05016,450Apr 27 05:08 PM
APHSchneider RichardSVP, Amphenol FCIApr 26Sale57.0823,4001,335,71968,274Apr 27 05:05 PM
DHXGoli ShravanBrightMatter Group PresidentApr 26Sale7.922,96023,457174,782Apr 27 05:05 PM
DHXGoli ShravanBrightMatter Group PresidentApr 25Sale8.0015,144121,110177,742Apr 27 05:05 PM
MORNDesmond BevinHead of Global Markets & HRApr 26Sale83.691,00083,68923,154Apr 27 05:01 PM
MORNDesmond BevinHead of Global Markets & HRApr 26Sale83.631,00083,62833,383Apr 27 05:01 PM
ETFCRoessner Karl AEVP & General CounselApr 25Sale25.9316,828436,283217,295Apr 27 05:00 PM
EXLSSaltzman NancyEVP & Gen. Counsel/Corp.Sec'y.Apr 25Sale50.442,521127,1590Apr 27 05:00 PM
ASBLau Timothy JExecutive Vice PresidentApr 27Sale18.363,00055,08550,276Apr 27 04:58 PM
MDSOSchloss EileenEVP, HUMAN RESOURCESApr 25Sale46.5368,7173,197,40222,361Apr 27 04:58 PM
PLXSFOATE DEAN AChairman, President and CEOApr 27Sale42.177,750326,825180,907Apr 27 04:56 PM
PLXSFOATE DEAN AChairman, President and CEOApr 26Sale42.252,00084,500180,907Apr 27 04:56 PM
MDSOOtner Michael I.EVP-General CounselApr 25Sale46.3010,000463,000108,284Apr 27 04:52 PM
MORNSturm Paul WDirectorApr 26Sale83.912,458206,23952,610Apr 27 04:47 PM
USGDannessa Dominic AExecutive Vice PresidentApr 25Sale28.522,50071,31269,437Apr 27 04:42 PM
PLXSKelsey Todd P.Exec VP & Chief Operating OffApr 26Sale42.172,00084,33042,162Apr 27 04:35 PM
PLXSSCHROCK MICHAEL VDirectorApr 25Sale41.8510,000418,45622,624Apr 27 04:25 PM
CPSSSECOND CURVE CAPITAL LLC10% OwnerApr 26Sale4.433,60015,9372,505,788Apr 27 04:25 PM
CPSSSECOND CURVE CAPITAL LLC10% OwnerApr 25Sale4.385,00021,9062,509,388Apr 27 04:25 PM
PAYXINMAN GRANT MDirectorApr 27Sale52.854,197221,81125,425Apr 27 04:24 PM
WMLPKost Kurt DDirectorApr 25Sale5.751,6939,7352,693Apr 27 04:23 PM
EXACMILLER GARY JExecutive Vice President, R&DApr 26Sale23.063,26075,176187,460Apr 27 04:19 PM
open in screener